Wetbulb
39.96 40.22 40.64 41.05 41.13 40.92 40.64 40.68 41.29 41.54 41.45 41.08 41.08 41.20 41.45 41.66 41.86 42.35 43.04 43.73 44.20 44.94 45.82 46.83 47.80 48.66 49.19 49.11 48.84 48.45 48.14 48.28 48.58 48.97 48.99 48.25 47.39 46.90 46.52 46.05 45.59 45.38 45.43 45.47 45.35 45.53 46.18 47.20 47.95 48.25 48.32 48.10 47.67 47.23 46.97 46.93 46.76 46.85 47.03 47.07 46.94 46.49 46.08 46.22 46.22 46.22 46.40 46.58 46.94
39.49 39.79 40.34 41.12 41.08 40.63 40.22 40.22 40.55 40.79 40.87 40.78 40.91 41.03 41.16 41.41 41.62 41.99 42.60 43.21 43.97 44.74 45.43 46.31 47.07 47.64 48.00 48.42 48.75 48.50 48.15 48.06 48.28 48.31 48.08 47.31 46.71 46.51 46.37 45.87 45.54 45.46 45.33 45.08 44.96 45.01 45.26 45.74 46.67 47.33 47.54 47.24 46.58 46.05 45.88 45.79 45.66 45.61 45.64 45.51 45.54 45.54 45.59 45.73 45.68 45.55 45.51 45.73 45.59
39.28 39.45 39.55 39.51 39.30 39.17 39.13 39.17 39.37 39.36 39.55 39.97 40.44 40.77 40.98 41.20 41.53 41.82 42.31 42.96 43.64 44.28 44.99 45.76 46.38 46.57 46.72 47.07 47.76 48.04 48.27 48.50 48.40 48.08 47.37 46.48 46.46 46.59 46.55 46.22 45.77 45.78 45.69 45.19 44.57 44.45 44.53 44.82 46.10 46.92 47.08 46.48 45.48 44.96 44.66 44.30 44.52 44.46 44.49 44.53 44.97 45.29 45.56 46.05 45.74 45.51 45.46 45.51 44.92
38.89 38.77 38.69 38.53 38.20 38.14 38.19 38.60 38.59 38.70 38.99 39.59 39.93 40.27 40.57 40.87 41.24 41.66 41.99 42.52 43.00 43.69 44.48 45.30 45.85 46.21 46.37 46.48 46.69 47.10 47.64 48.39 48.11 47.79 47.38 46.71 46.63 46.56 46.39 45.98 45.53 45.11 44.77 44.56 44.02 43.81 43.89 44.40 45.61 46.08 45.82 44.71 44.19 44.02 44.02 43.97 43.49 43.44 43.68 44.18 44.62 44.89 45.12 45.66 45.30 45.29 45.29 45.20 44.65
38.38 38.30 38.26 38.13 37.76 37.79 37.88 38.14 38.08 38.29 38.68 39.25 39.42 39.59 39.85 40.20 40.71 41.04 41.33 41.62 42.15 42.93 43.79 44.60 45.31 46.05 46.51 46.54 46.41 46.65 47.06 47.45 48.00 47.24 46.27 45.94 45.98 45.77 45.57 45.33 44.99 44.53 44.02 43.60 43.48 43.39 43.39 43.85 44.74 45.00 44.70 44.19 44.45 44.28 43.81 43.33 43.07 42.90 43.02 43.61 44.08 44.51 44.73 44.86 44.99 45.07 45.29 45.68 44.87
37.69 37.61 37.57 37.61 37.41 37.45 37.63 37.85 37.86 38.00 38.43 38.80 38.66 38.53 38.70 39.23 39.79 40.08 40.29 40.52 41.27 42.18 43.23 44.35 45.30 46.15 46.75 46.81 46.40 46.32 46.28 46.12 46.38 45.60 44.79 44.62 44.95 45.03 44.78 44.27 43.98 43.77 43.48 43.23 43.27 43.31 43.35 43.39 44.11 44.24 44.24 44.32 43.77 43.47 43.25 43.34 43.39 43.13 42.95 43.21 43.67 44.04 44.25 44.24 44.58 44.67 44.71 44.48 43.93
36.96 36.83 36.78 36.82 36.82 36.94 37.24 37.59 37.90 38.07 38.08 37.99 37.59 37.45 37.66 38.14 38.57 38.99 39.49 39.99 40.88 41.88 42.93 44.36 45.24 46.05 46.72 47.27 47.05 46.47 45.85 45.49 45.07 44.48 43.94 43.64 43.43 43.35 43.26 42.89 42.73 42.81 43.14 43.38 43.51 43.51 43.52 43.48 43.98 44.32 44.62 44.99 44.23 43.35 42.75 42.88 43.05 42.96 42.92 43.13 43.45 43.70 43.82 43.53 44.17 44.39 44.25 43.35 43.18
36.45 36.39 36.27 36.39 36.48 36.65 37.03 37.51 37.74 37.69 37.43 37.21 36.94 36.91 37.16 37.54 38.10 38.65 39.33 40.05 40.69 41.66 42.72 43.90 44.74 45.60 46.34 46.97 47.02 46.71 46.05 44.92 44.23 43.59 43.09 42.93 42.51 42.27 42.10 42.03 42.11 42.40 42.68 43.22 43.38 43.47 43.51 43.76 43.93 43.77 43.60 43.98 43.77 42.97 42.15 42.11 42.33 42.36 42.43 42.59 42.96 42.99 42.93 43.05 43.48 43.92 44.10 43.65 43.51
35.75 35.84 35.97 36.19 36.39 36.75 37.14 37.26 37.15 36.96 36.69 36.54 36.67 36.84 37.22 37.83 38.42 39.05 39.60 40.20 41.10 41.92 42.72 43.48 44.32 45.26 46.00 46.49 46.32 46.23 45.88 44.92 43.26 42.27 41.82 42.06 42.14 42.27 42.39 42.60 42.72 42.85 42.85 42.85 43.10 43.26 43.51 43.84 43.72 43.48 43.35 43.52 43.18 42.55 42.07 42.11 42.24 42.06 41.90 42.03 42.32 42.36 42.31 42.26 42.35 42.49 42.66 42.78 42.59
34.94 35.31 35.63 35.91 36.27 36.62 36.87 36.79 36.60 36.49 36.38 36.29 36.59 37.08 37.76 38.86 39.12 39.55 40.14 40.87 41.64 42.15 42.62 43.21 44.02 44.84 45.61 46.35 46.05 45.56 44.94 44.08 42.39 41.29 40.87 41.32 41.78 41.94 42.15 42.64 42.89 42.84 42.82 42.86 42.91 42.92 43.02 43.22 43.23 43.01 42.84 42.80 42.49 42.19 42.06 42.06 42.01 41.64 41.43 41.75 41.91 41.78 41.73 41.63 41.42 41.43 41.47 41.54 41.48
34.76 35.14 35.53 35.93 36.07 36.32 36.47 36.18 36.30 36.34 36.41 36.40 36.51 36.93 37.58 38.55 38.92 39.48 40.17 41.07 41.52 41.92 42.52 43.32 44.05 44.79 45.48 46.18 45.74 44.94 44.01 43.27 42.13 41.24 40.85 41.20 41.49 41.49 41.61 42.12 42.44 42.46 42.40 42.52 42.79 42.86 42.92 43.18 43.22 43.09 42.82 42.73 42.51 42.42 42.24 41.98 41.70 41.28 40.93 40.76 40.98 40.94 40.82 40.73 40.54 40.58 40.62 40.65 40.64
34.93 35.26 35.39 35.61 35.70 35.87 35.86 35.88 35.99 36.02 36.13 36.29 36.37 36.66 37.11 37.70 38.32 39.02 39.71 40.26 40.85 41.61 42.54 43.52 44.43 45.22 45.70 45.87 45.21 44.72 44.15 43.33 42.40 41.69 41.15 40.95 41.17 41.42 41.66 41.91 42.21 42.28 42.35 42.39 42.79 43.15 43.38 43.47 43.63 43.36 43.00 42.64 42.68 42.64 42.42 42.01 41.69 41.35 40.94 40.47 40.34 40.22 40.09 39.83 39.82 39.85 39.87 39.71 39.80
34.93 35.00 35.10 35.17 35.19 35.25 35.32 35.51 35.70 35.79 35.83 35.97 36.19 36.43 36.84 37.34 38.00 38.49 38.96 39.47 40.32 41.09 42.04 43.22 44.61 45.65 46.00 45.56 44.85 44.45 44.19 43.85 43.39 42.76 42.09 41.37 41.54 41.71 41.87 42.03 42.29 42.37 42.41 42.57 43.10 43.50 43.76 43.71 43.61 43.25 42.88 42.64 42.59 42.51 42.33 42.06 41.69 41.32 40.87 40.42 40.16 39.78 39.52 39.36 39.32 39.30 39.26 39.05 38.95
34.50 34.48 34.64 34.85 34.83 34.98 35.14 35.24 35.38 35.57 35.72 35.83 36.05 36.30 36.55 36.83 37.43 37.92 38.41 38.79 39.50 40.40 41.42 42.61 44.42 45.78 46.36 45.73 44.98 44.49 44.15 44.11 44.04 43.61 43.01 42.35 42.31 42.26 42.34 42.16 42.41 42.71 42.92 43.27 43.44 43.44 43.35 43.30 43.20 43.06 42.91 42.62 42.39 42.08 41.82 41.55 41.18 40.82 40.38 39.94 39.63 39.24 38.95 38.80 38.76 38.78 38.71 38.31 37.98
33.91 34.14 34.36 34.53 34.70 34.78 34.90 34.86 35.09 35.37 35.65 35.75 35.96 36.13 36.21 36.43 37.03 37.51 38.01 38.19 38.98 40.01 41.10 42.05 43.80 45.47 46.49 46.18 45.42 44.76 44.28 44.15 44.33 44.19 43.76 43.30 43.35 43.19 42.97 42.57 42.86 43.11 43.37 43.64 43.59 43.41 43.28 43.14 43.18 43.13 42.90 42.41 41.86 41.37 40.93 40.62 40.25 39.90 39.60 39.17 38.86 38.52 38.35 38.32 38.25 38.36 38.23 37.87 37.39
33.43 33.73 34.04 34.33 34.45 34.43 34.49 34.57 34.97 35.29 35.49 35.60 35.77 35.82 36.05 36.25 36.68 37.09 37.40 37.66 38.68 39.78 40.79 41.36 42.81 44.53 46.00 46.44 45.82 45.16 44.67 44.45 44.40 44.26 44.08 44.00 44.10 43.85 43.42 43.01 43.14 43.27 43.31 43.27 43.26 43.20 43.25 43.29 43.20 42.86 42.28 41.61 40.97 40.39 39.95 39.64 39.25 38.90 38.60 38.39 38.10 37.88 37.78 37.88 37.85 37.88 37.89 37.88 37.48
33.00 33.42 33.81 34.14 34.19 34.13 34.20 34.36 34.68 34.93 35.06 35.24 35.46 35.71 35.95 36.22 36.42 36.76 37.14 37.65 38.37 39.26 40.09 40.91 42.28 43.61 44.91 45.67 45.68 45.37 44.93 44.66 44.53 44.44 44.39 44.44 44.35 44.09 43.74 43.43 43.39 43.26 43.13 42.91 42.84 42.73 42.59 42.51 42.31 41.79 41.17 40.49 39.91 39.50 39.10 38.76 38.46 38.12 37.82 37.57 37.39 37.17 37.17 37.48 37.31 37.21 37.31 37.44 37.25
32.64 33.18 33.73 34.19 34.21 34.21 34.30 34.40 34.41 34.57 34.78 35.13 35.39 35.64 35.84 36.01 36.15 36.41 36.84 37.53 38.16 38.79 39.57 40.55 41.81 42.79 43.60 44.27 44.86 45.18 45.01 44.75 44.61 44.53 44.62 44.44 44.18 43.82 43.55 43.32 43.19 43.07 42.80 42.62 42.29 41.97 41.70 41.36 41.02 40.58 40.09 39.64 39.28 39.01 38.67 38.32 37.93 37.55 37.21 36.96 36.71 36.49 36.36 36.41 36.40 36.56 36.75 36.97 37.11
32.37 32.92 33.64 34.12 34.28 34.42 34.52 34.60 34.56 34.64 34.87 35.22 35.40 35.53 35.62 35.79 35.91 36.10 36.47 37.15 38.14 38.79 39.48 40.19 41.31 42.20 42.79 43.19 43.73 44.45 45.00 45.04 44.78 44.60 44.42 44.16 43.72 43.32 43.05 42.78 42.65 42.52 42.13 41.86 41.54 41.27 40.91 40.61 40.18 39.86 39.46 39.14 38.84 38.62 38.32 37.94 37.54 37.16 36.82 36.62 36.32 36.11 35.90 35.69 35.84 36.04 36.28 36.46 36.80
32.24 32.77 33.53 34.05 34.19 34.28 34.32 34.39 34.56 34.69 34.90 35.15 35.24 35.28 35.32 35.55 35.81 35.97 36.37 37.03 38.21 39.05 39.65 40.18 41.08 41.79 42.29 42.70 43.01 43.55 44.13 44.63 44.00 43.50 43.10 43.06 42.79 42.53 42.22 42.09 41.73 41.48 41.22 40.96 40.74 40.43 40.17 39.91 39.56 39.21 38.98 38.62 38.34 37.99 37.73 37.40 37.01 36.80 36.59 36.48 36.15 35.95 35.70 35.58 35.69 35.89 36.00 36.23 36.52
32.39 32.98 33.61 34.09 34.14 34.10 34.08 34.13 34.31 34.52 34.65 34.81 34.85 34.97 35.15 35.41 35.67 35.97 36.58 37.66 38.76 39.34 39.74 40.18 40.71 41.21 41.61 42.06 42.33 42.69 43.05 43.32 42.65 42.20 42.02 41.93 41.79 41.66 41.53 41.30 40.90 40.55 40.29 40.07 39.82 39.57 39.36 39.18 38.89 38.71 38.44 38.13 37.72 37.36 37.06 36.83 36.57 36.37 36.29 36.29 36.01 35.82 35.64 35.56 35.65 35.74 35.95 36.21 36.50
32.54 33.16 33.74 34.10 34.10 33.99 33.97 33.93 34.02 34.06 34.25 34.46 34.67 34.85 35.10 35.36 35.71 36.29 37.18 38.56 39.02 39.02 38.97 39.24 39.64 39.91 40.09 40.31 40.62 40.89 41.16 41.34 41.08 40.90 40.89 40.80 40.71 40.67 40.63 40.32 39.73 39.23 38.86 38.64 38.46 38.34 38.27 38.17 38.02 37.80 37.58 37.29 36.95 36.69 36.56 36.28 36.04 35.91 35.82 35.79 35.65 35.56 35.52 35.63 35.72 35.68 35.75 35.92 36.26
32.58 33.12 33.70 34.02 33.98 34.00 33.94 33.64 33.51 33.54 33.77 34.01 34.37 34.71 34.97 35.40 35.71 36.34 37.19 38.21 37.81 37.41 37.27 37.57 37.79 37.84 37.93 38.21 38.34 38.43 38.61 38.75 38.79 38.88 39.01 39.05 38.96 39.01 38.96 38.82 38.23 37.67 37.35 37.16 36.97 36.84 36.63 36.48 36.43 36.45 36.31 36.17 35.89 35.77 35.73 35.65 35.50 35.35 35.17 35.06 34.97 34.90 34.94 35.11 35.19 35.26 35.26 35.44 35.74
32.42 32.91 33.40 33.82 33.75 33.50 33.30 32.98 32.89 32.91 33.23 33.60 34.05 34.44 34.82 35.30 35.48 35.75 36.19 36.64 36.19 35.92 35.81 36.06 36.25 36.43 36.53 36.80 36.99 37.03 36.99 36.94 37.02 37.15 37.37 37.55 37.67 37.72 37.80 37.84 37.57 37.30 37.08 36.96 37.00 36.76 36.35 35.63 35.29 35.22 35.23 35.18 35.03 35.04 35.06 35.00 34.83 34.54 34.26 34.02 33.90 33.85 33.90 33.96 34.14 34.26 34.38 34.73 35.14
32.18 32.59 32.98 33.23 33.31 33.23 32.90 32.37 32.21 32.32 32.74 33.20 33.74 34.21 34.72 35.23 35.06 34.93 35.05 35.23 35.19 35.18 35.08 35.12 35.48 35.67 35.76 35.85 36.08 36.25 36.24 36.23 36.13 36.22 36.48 36.84 37.20 37.56 37.79 37.94 38.00 37.93 38.08 38.24 38.95 38.84 38.11 37.01 35.83 35.07 34.65 34.55 34.52 34.44 34.48 34.35 34.13 33.85 33.52 33.27 32.91 32.63 32.47 32.44 32.70 32.94 33.35 33.79 34.02
31.84 32.11 32.32 32.63 33.00 32.88 32.43 31.84 31.77 31.98 32.32 32.90 33.34 33.89 34.40 35.13 34.65 34.30 34.16 34.28 34.50 34.63 34.67 34.62 34.80 35.00 35.11 34.59 34.78 34.95 35.11 35.31 35.53 35.66 35.92 36.28 36.83 37.38 37.93 38.32 38.62 38.66 38.79 39.26 39.65 39.54 39.11 38.64 37.60 36.29 35.00 34.25 34.25 34.17 34.05 33.91 33.66 33.36 33.12 32.81 32.47 32.00 31.63 31.37 31.35 31.73 32.23 32.72 32.92
31.38 31.59 31.86 32.30 32.75 32.59 32.13 31.58 31.57 31.70 31.95 32.47 32.88 33.39 34.12 34.99 34.29 33.73 33.42 33.49 33.75 33.97 34.06 33.96 33.88 34.13 34.12 33.26 33.05 33.12 33.36 33.86 34.29 34.73 35.12 35.57 36.11 36.75 37.48 38.31 38.93 39.36 39.73 40.31 40.28 39.93 39.52 38.97 38.29 37.26 36.00 34.60 34.35 34.13 33.91 33.65 33.43 33.24 33.00 32.71 32.28 32.02 31.64 31.39 31.35 31.54 31.77 31.96 32.12
30.53 30.89 31.23 31.51 32.19 32.11 31.77 31.42 31.32 31.35 31.59 31.98 32.44 33.12 33.91 34.69 33.91 33.25 32.89 32.79 32.93 33.05 33.09 33.12 33.21 33.23 32.94 32.33 31.93 31.81 31.90 32.18 32.61 33.10 33.61 34.27 34.92 35.60 36.36 37.30 38.35 39.42 40.45 41.03 40.78 40.43 39.90 39.36 38.66 37.84 36.72 35.30 34.53 34.04 33.74 33.31 33.07 32.80 32.48 32.31 32.06 31.79 31.58 31.44 31.47 31.56 31.68 31.74 31.88
30.00 30.26 30.46 30.65 31.48 31.49 31.12 30.87 30.91 31.05 31.25 31.74 32.16 32.79 33.48 34.15 33.67 33.10 32.55 32.41 32.11 31.97 32.04 32.30 32.57 32.41 32.04 31.63 31.40 31.25 31.22 31.18 31.32 31.56 31.83 32.21 32.90 33.87 35.03 36.14 37.27 38.66 40.02 40.90 40.69 40.43 40.05 39.50 38.83 38.16 37.42 36.26 34.48 33.41 32.88 32.75 32.33 31.90 31.54 31.41 31.29 31.13 31.00 30.85 30.92 31.03 31.18 31.39 31.62
29.64 29.71 29.88 30.08 30.74 30.75 30.46 30.30 30.59 30.76 31.05 31.50 31.84 32.29 32.74 33.31 33.34 32.83 32.27 31.93 31.66 31.63 31.71 31.84 31.72 31.56 31.26 31.22 31.11 30.99 30.94 30.87 30.86 30.77 30.70 30.77 31.17 31.95 33.19 34.96 36.13 37.58 38.94 39.85 39.88 39.79 39.55 39.19 38.67 38.19 37.51 36.58 34.64 33.18 32.15 31.65 31.15 30.72 30.44 30.19 29.99 29.85 29.82 29.79 29.86 29.90 30.09 30.30 30.55
29.05 29.06 29.18 29.30 29.74 29.85 29.81 29.88 30.16 30.37 30.69 31.13 31.34 31.56 31.84 32.35 32.71 32.63 32.19 31.82 31.77 31.94 32.05 31.75 31.17 30.95 30.99 31.26 31.18 30.97 30.89 30.75 30.55 30.34 30.12 29.98 30.43 30.90 31.55 32.88 34.65 36.61 38.18 38.93 38.93 38.93 38.93 38.74 38.32 37.82 37.15 36.31 34.55 32.67 31.25 30.81 30.32 29.93 29.68 29.47 29.29 29.16 28.96 28.83 28.80 28.79 28.89 29.10 29.23
28.26 28.18 28.16 28.31 28.56 28.89 29.22 29.41 29.74 30.00 30.32 30.69 30.67 30.74 30.90 31.28 32.21 32.67 32.66 32.17 31.93 31.72 31.45 31.15 30.81 30.66 30.79 30.99 30.94 30.90 30.74 30.50 30.25 30.05 29.86 29.61 29.52 29.71 30.32 31.31 32.97 35.42 37.59 38.46 38.26 38.15 38.11 38.17 37.92 37.43 36.71 36.00 34.43 32.24 30.49 30.18 29.84 29.61 29.43 29.07 28.88 28.70 28.64 28.54 28.27 28.12 28.10 28.20 28.39
27.37 27.23 27.20 27.26 27.63 28.07 28.55 28.90 29.19 29.36 29.54 29.77 29.96 30.01 30.15 30.59 31.66 32.40 32.75 32.66 32.11 31.48 30.98 30.82 30.49 30.33 30.38 30.49 30.61 30.57 30.50 30.32 30.08 30.05 30.08 29.69 29.29 29.33 29.58 30.14 31.48 34.28 37.07 38.12 37.95 37.71 37.45 37.37 37.22 36.81 36.20 35.50 33.51 31.32 29.73 29.43 29.50 29.47 29.31 28.94 28.62 28.42 28.23 27.99 27.81 27.64 27.59 27.68 28.08
26.77 26.60 26.46 26.57 26.81 27.22 27.70 28.21 28.43 28.38 28.35 28.44 28.95 29.33 29.69 30.07 30.70 31.60 32.39 33.07 32.55 31.83 31.37 31.06 30.85 30.68 30.59 30.58 30.44 30.35 30.35 30.37 29.78 29.39 29.13 28.97 28.90 28.90 28.89 29.10 30.23 33.29 36.39 37.44 37.50 37.33 37.03 36.77 36.54 36.19 35.60 34.79 32.12 30.14 28.98 28.72 28.90 28.94 28.80 28.46 28.19 28.00 27.91 27.71 27.52 27.39 27.40 27.60 28.17
26.40 26.16 25.93 25.99 26.16 26.40 26.78 27.17 27.34 27.32 27.25 27.25 27.86 28.59 29.23 29.64 30.15 31.01 32.11 33.34 33.08 32.48 31.68 31.41 31.18 31.03 30.85 30.75 30.71 30.53 30.26 29.93 29.45 29.16 28.98 28.70 28.42 28.35 28.35 28.44 29.55 32.37 35.21 36.27 36.68 36.76 36.68 36.37 35.97 35.53 34.66 33.21 30.78 29.37 28.61 28.34 28.25 28.21 28.14 27.99 27.81 27.71 27.64 27.63 27.45 27.30 27.36 27.64 28.16
26.11 25.83 25.64 25.51 25.57 25.77 26.00 26.13 26.25 26.29 26.24 26.30 26.97 27.79 28.68 29.28 29.81 30.84 32.03 33.21 33.09 32.62 32.03 31.61 31.27 30.91 30.62 30.50 30.53 30.66 30.43 29.71 29.41 29.20 28.94 28.72 28.17 27.68 27.44 27.66 28.47 30.98 33.73 35.18 35.70 36.12 36.21 36.03 35.54 34.87 33.66 31.52 29.73 28.79 28.38 28.06 27.87 27.78 27.82 27.88 27.84 27.78 27.77 27.79 27.64 27.43 27.46 27.87 28.38
25.80 25.59 25.40 25.14 25.11 25.19 25.37 25.43 25.37 25.32 25.35 25.55 26.34 27.30 28.14 28.74 29.41 30.50 31.79 32.88 32.34 32.18 32.17 31.97 31.40 30.82 30.44 30.23 30.29 30.42 30.45 30.18 29.67 29.26 28.99 28.85 28.15 27.39 26.90 27.00 27.38 29.38 32.06 34.39 35.05 35.73 36.20 35.91 35.21 34.17 32.55 30.11 28.83 28.20 27.88 27.49 27.31 27.23 27.29 27.41 27.74 27.94 27.98 28.09 27.93 27.96 28.27 28.93 29.82
25.39 25.26 25.00 24.76 24.70 24.78 24.84 24.87 24.73 24.63 24.76 25.11 26.04 27.09 28.00 28.54 28.89 29.95 31.25 32.39 31.77 31.62 31.79 32.17 31.70 31.24 30.79 30.56 30.26 30.18 30.23 30.25 29.89 29.33 28.82 28.55 28.23 27.58 26.94 26.37 26.67 28.25 30.83 33.84 35.12 36.09 36.51 35.81 34.90 33.71 31.93 29.28 28.21 27.55 27.19 26.66 26.35 26.37 26.47 26.78 27.34 27.82 28.11 28.18 28.14 28.47 29.20 30.29 31.97
25.07 24.88 24.73 24.54 24.42 24.39 24.47 24.41 24.33 24.31 24.49 24.89 25.81 26.75 27.54 28.12 28.50 29.49 30.68 31.68 31.50 31.41 31.49 31.88 31.81 31.70 31.49 31.18 30.35 29.84 29.62 29.75 29.79 29.47 28.94 28.33 28.52 28.49 27.89 26.41 26.18 27.46 29.95 33.36 35.45 36.52 36.48 35.28 34.53 33.53 31.95 29.38 27.90 27.09 26.54 25.93 25.47 25.38 25.62 26.00 26.49 27.00 27.46 27.66 27.52 27.53 27.76 28.50 31.54
24.94 24.88 24.68 24.41 24.30 24.26 24.24 24.17 24.21 24.30 24.48 24.84 25.53 26.28 27.07 27.84 28.35 29.19 30.07 30.69 30.81 31.02 31.31 31.58 31.69 31.79 31.81 31.57 30.37 29.51 29.14 29.16 29.28 29.35 29.12 28.64 28.91 29.38 29.02 26.84 26.15 26.87 29.03 32.49 35.33 36.34 35.84 34.53 34.01 33.17 31.55 28.83 27.55 26.67 26.10 25.45 24.94 24.71 24.69 24.97 25.47 25.83 26.20 26.37 26.22 25.81 25.49 25.46 27.75
24.80 24.71 24.60 24.52 24.26 24.16 24.07 24.04 24.13 24.31 24.56 24.82 25.31 26.16 27.12 27.91 28.04 28.38 28.87 29.08 29.29 29.88 30.58 31.36 31.33 31.43 31.44 31.32 30.32 29.46 28.91 28.70 28.85 28.98 29.01 28.75 28.46 28.81 28.74 26.99 26.23 26.34 27.74 30.60 34.28 35.83 35.54 34.21 33.67 32.86 31.33 28.74 27.14 26.18 25.59 25.01 24.46 24.02 23.73 23.76 24.47 24.94 25.20 25.06 24.94 24.61 24.28 23.91 24.42
MSLP
1017.88 1017.76 1017.68 1017.52 1017.36 1017.20 1017.04 1016.80 1016.60 1016.36 1016.20 1015.92 1015.68 1015.40 1015.16 1014.92 1014.56 1014.20 1013.92 1013.60 1013.20 1012.76 1012.32 1011.92 1011.60 1011.24 1010.88 1010.44 1010.04 1009.72 1009.56 1009.68 1009.72 1009.36 1008.76 1008.28 1008.20 1008.20 1008.36 1008.64 1008.84 1009.04 1009.12 1009.20 1009.20 1009.24 1009.32 1009.36 1009.44 1009.56 1009.68 1009.76 1009.88 1009.92 1010.04 1010.08 1010.20 1010.32 1010.40 1010.48 1010.60 1010.64 1010.68 1010.76 1010.76 1010.76 1010.76 1010.76 1010.76
1017.92 1017.84 1017.72 1017.60 1017.40 1017.24 1017.04 1016.76 1016.56 1016.36 1016.20 1016.00 1015.76 1015.48 1015.20 1014.92 1014.60 1014.20 1013.84 1013.52 1013.20 1012.80 1012.40 1011.96 1011.56 1011.24 1010.92 1010.48 1010.04 1009.64 1009.36 1009.28 1009.48 1009.28 1008.76 1008.24 1008.04 1008.04 1008.20 1008.48 1008.72 1009.00 1009.20 1009.36 1009.36 1009.36 1009.36 1009.44 1009.52 1009.64 1009.76 1009.88 1009.96 1010.00 1010.04 1010.16 1010.24 1010.36 1010.48 1010.56 1010.64 1010.64 1010.68 1010.76 1010.76 1010.76 1010.76 1010.76 1010.76
1018.00 1017.88 1017.76 1017.60 1017.44 1017.28 1017.04 1016.80 1016.56 1016.36 1016.20 1016.00 1015.76 1015.48 1015.20 1014.92 1014.56 1014.20 1013.80 1013.52 1013.20 1012.84 1012.44 1011.96 1011.52 1011.20 1010.92 1010.64 1010.20 1009.76 1009.40 1009.20 1009.28 1009.20 1008.80 1008.32 1008.00 1007.92 1008.08 1008.36 1008.68 1009.00 1009.28 1009.44 1009.48 1009.48 1009.44 1009.48 1009.56 1009.68 1009.80 1009.92 1010.04 1010.12 1010.20 1010.24 1010.32 1010.48 1010.64 1010.68 1010.72 1010.72 1010.76 1010.76 1010.72 1010.68 1010.68 1010.72 1010.76
1018.04 1017.92 1017.80 1017.64 1017.48 1017.36 1017.16 1016.92 1016.64 1016.44 1016.20 1015.96 1015.72 1015.44 1015.20 1014.92 1014.56 1014.20 1013.84 1013.48 1013.16 1012.84 1012.44 1012.04 1011.60 1011.28 1011.00 1010.76 1010.44 1010.00 1009.64 1009.40 1009.24 1009.12 1008.80 1008.28 1007.92 1007.84 1008.00 1008.24 1008.64 1009.04 1009.36 1009.56 1009.52 1009.48 1009.48 1009.48 1009.60 1009.68 1009.80 1009.92 1010.04 1010.16 1010.28 1010.32 1010.40 1010.52 1010.68 1010.80 1010.80 1010.84 1010.84 1010.80 1010.76 1010.72 1010.72 1010.76 1010.76
1018.08 1017.96 1017.84 1017.72 1017.52 1017.36 1017.20 1017.00 1016.76 1016.52 1016.28 1016.04 1015.76 1015.44 1015.16 1014.92 1014.60 1014.24 1013.88 1013.56 1013.20 1012.80 1012.48 1012.12 1011.76 1011.36 1011.08 1010.92 1010.60 1010.24 1009.88 1009.56 1009.20 1008.92 1008.52 1008.08 1007.92 1007.88 1007.96 1008.20 1008.56 1009.04 1009.44 1009.56 1009.48 1009.44 1009.40 1009.48 1009.60 1009.76 1009.88 1009.96 1010.04 1010.16 1010.28 1010.32 1010.44 1010.64 1010.76 1010.88 1010.92 1010.92 1010.96 1010.92 1010.88 1010.84 1010.80 1010.80 1010.80
1018.16 1018.04 1017.92 1017.76 1017.64 1017.44 1017.24 1017.04 1016.80 1016.56 1016.32 1016.04 1015.76 1015.48 1015.20 1014.92 1014.64 1014.32 1013.96 1013.64 1013.20 1012.84 1012.48 1012.12 1011.72 1011.36 1011.04 1010.88 1010.72 1010.44 1010.08 1009.68 1009.24 1008.80 1008.36 1008.04 1007.92 1007.96 1008.04 1008.24 1008.48 1008.84 1009.20 1009.36 1009.36 1009.36 1009.36 1009.44 1009.60 1009.76 1009.88 1010.00 1010.12 1010.20 1010.24 1010.32 1010.48 1010.68 1010.84 1010.92 1011.00 1011.04 1011.04 1011.04 1011.04 1010.96 1010.92 1010.92 1010.92
1018.32 1018.16 1018.00 1017.80 1017.64 1017.44 1017.24 1017.04 1016.80 1016.60 1016.32 1016.08 1015.76 1015.48 1015.20 1014.92 1014.64 1014.28 1013.92 1013.60 1013.16 1012.76 1012.32 1011.92 1011.52 1011.20 1010.92 1010.80 1010.68 1010.52 1010.32 1009.92 1009.48 1008.88 1008.32 1008.04 1007.96 1008.04 1008.16 1008.28 1008.40 1008.64 1008.84 1009.00 1009.12 1009.20 1009.32 1009.40 1009.56 1009.76 1009.92 1010.04 1010.20 1010.32 1010.36 1010.44 1010.60 1010.76 1010.96 1011.04 1011.08 1011.12 1011.16 1011.20 1011.16 1011.08 1011.04 1011.04 1011.04
1018.44 1018.24 1018.08 1017.92 1017.68 1017.48 1017.24 1017.04 1016.76 1016.60 1016.32 1016.08 1015.76 1015.48 1015.20 1014.92 1014.52 1014.16 1013.76 1013.36 1012.96 1012.56 1012.16 1011.76 1011.36 1011.04 1010.80 1010.64 1010.60 1010.52 1010.44 1010.20 1009.76 1009.20 1008.56 1008.08 1007.96 1008.00 1008.12 1008.28 1008.40 1008.56 1008.68 1008.76 1008.92 1009.04 1009.16 1009.28 1009.52 1009.72 1009.84 1010.04 1010.20 1010.32 1010.48 1010.56 1010.68 1010.88 1011.04 1011.16 1011.20 1011.20 1011.20 1011.24 1011.20 1011.16 1011.16 1011.20 1011.16
1018.48 1018.28 1018.08 1017.88 1017.64 1017.44 1017.24 1017.04 1016.84 1016.64 1016.36 1016.04 1015.76 1015.48 1015.12 1014.76 1014.32 1013.96 1013.56 1013.16 1012.72 1012.32 1011.96 1011.64 1011.28 1010.96 1010.68 1010.48 1010.40 1010.40 1010.36 1010.32 1010.00 1009.48 1008.84 1008.32 1008.08 1008.04 1008.16 1008.24 1008.36 1008.52 1008.64 1008.76 1008.80 1008.88 1009.00 1009.16 1009.40 1009.60 1009.72 1009.88 1010.04 1010.28 1010.44 1010.56 1010.76 1010.96 1011.16 1011.24 1011.28 1011.24 1011.20 1011.24 1011.28 1011.28 1011.32 1011.32 1011.32
1018.56 1018.32 1018.04 1017.84 1017.64 1017.44 1017.24 1017.04 1016.80 1016.56 1016.28 1015.96 1015.64 1015.32 1014.96 1014.60 1014.20 1013.84 1013.48 1013.04 1012.60 1012.20 1011.88 1011.52 1011.20 1010.88 1010.60 1010.32 1010.20 1010.16 1010.20 1010.20 1010.04 1009.64 1009.08 1008.64 1008.32 1008.20 1008.20 1008.28 1008.36 1008.52 1008.64 1008.76 1008.84 1008.84 1008.92 1009.00 1009.32 1009.48 1009.64 1009.72 1009.96 1010.20 1010.40 1010.64 1010.84 1011.04 1011.24 1011.40 1011.48 1011.48 1011.44 1011.44 1011.48 1011.48 1011.44 1011.44 1011.40
1018.64 1018.36 1018.12 1017.88 1017.68 1017.48 1017.24 1017.00 1016.72 1016.48 1016.20 1015.84 1015.52 1015.20 1014.92 1014.56 1014.20 1013.80 1013.40 1013.04 1012.56 1012.16 1011.76 1011.40 1011.04 1010.72 1010.40 1010.16 1010.00 1009.92 1010.00 1010.04 1010.04 1009.72 1009.24 1008.80 1008.56 1008.44 1008.36 1008.36 1008.40 1008.48 1008.64 1008.76 1008.88 1008.92 1008.96 1009.04 1009.24 1009.44 1009.60 1009.72 1009.92 1010.12 1010.32 1010.60 1010.84 1011.12 1011.36 1011.60 1011.72 1011.76 1011.76 1011.72 1011.68 1011.64 1011.60 1011.52 1011.48
1018.68 1018.44 1018.20 1018.00 1017.76 1017.56 1017.28 1017.04 1016.68 1016.40 1016.08 1015.76 1015.48 1015.20 1014.84 1014.48 1014.16 1013.76 1013.40 1013.00 1012.52 1012.04 1011.60 1011.20 1010.84 1010.48 1010.20 1009.96 1009.88 1009.84 1009.92 1010.00 1010.00 1009.76 1009.40 1009.04 1008.76 1008.64 1008.56 1008.48 1008.48 1008.52 1008.64 1008.80 1008.92 1009.04 1009.08 1009.20 1009.32 1009.44 1009.64 1009.76 1009.92 1010.04 1010.32 1010.64 1010.92 1011.28 1011.56 1011.76 1011.88 1011.92 1011.96 1011.92 1011.80 1011.72 1011.64 1011.60 1011.52
1018.80 1018.56 1018.32 1018.08 1017.88 1017.64 1017.32 1017.00 1016.72 1016.40 1016.08 1015.76 1015.48 1015.20 1014.84 1014.48 1014.12 1013.76 1013.36 1012.92 1012.48 1012.04 1011.52 1011.04 1010.64 1010.20 1009.92 1009.76 1009.76 1009.84 1009.92 1009.96 1009.92 1009.76 1009.48 1009.20 1008.96 1008.84 1008.76 1008.72 1008.72 1008.72 1008.80 1008.92 1009.04 1009.12 1009.20 1009.24 1009.36 1009.48 1009.64 1009.84 1009.96 1010.16 1010.44 1010.76 1011.08 1011.40 1011.68 1011.92 1012.00 1012.04 1012.04 1011.96 1011.84 1011.76 1011.68 1011.64 1011.68
1018.92 1018.72 1018.44 1018.20 1017.92 1017.64 1017.36 1017.04 1016.76 1016.44 1016.12 1015.80 1015.48 1015.20 1014.84 1014.48 1014.12 1013.76 1013.36 1012.92 1012.48 1012.04 1011.52 1011.00 1010.48 1010.04 1009.72 1009.60 1009.64 1009.80 1009.92 1009.92 1009.84 1009.72 1009.52 1009.28 1009.12 1009.00 1008.92 1008.92 1008.92 1008.96 1009.04 1009.12 1009.20 1009.20 1009.24 1009.28 1009.36 1009.48 1009.72 1009.92 1010.08 1010.32 1010.64 1010.92 1011.24 1011.52 1011.76 1012.00 1012.08 1012.12 1012.08 1012.04 1011.92 1011.84 1011.80 1011.84 1011.92
1019.04 1018.80 1018.56 1018.32 1018.04 1017.72 1017.44 1017.12 1016.80 1016.48 1016.20 1015.84 1015.48 1015.16 1014.80 1014.44 1014.04 1013.72 1013.32 1012.88 1012.44 1012.04 1011.56 1011.04 1010.48 1009.92 1009.52 1009.36 1009.44 1009.64 1009.80 1009.76 1009.72 1009.64 1009.48 1009.36 1009.28 1009.20 1009.12 1009.08 1009.12 1009.20 1009.28 1009.32 1009.32 1009.36 1009.32 1009.36 1009.44 1009.60 1009.76 1009.96 1010.20 1010.52 1010.80 1011.12 1011.44 1011.68 1011.92 1012.08 1012.20 1012.20 1012.20 1012.12 1012.04 1012.00 1012.04 1012.04 1012.12
1019.16 1018.92 1018.64 1018.40 1018.08 1017.80 1017.52 1017.20 1016.92 1016.60 1016.24 1015.92 1015.52 1015.16 1014.76 1014.40 1014.04 1013.64 1013.28 1012.88 1012.48 1012.04 1011.60 1011.08 1010.56 1009.92 1009.44 1009.16 1009.16 1009.36 1009.52 1009.64 1009.60 1009.56 1009.52 1009.48 1009.48 1009.48 1009.36 1009.28 1009.32 1009.36 1009.44 1009.48 1009.48 1009.52 1009.52 1009.52 1009.64 1009.72 1009.84 1010.08 1010.36 1010.68 1011.04 1011.36 1011.60 1011.84 1012.04 1012.20 1012.24 1012.32 1012.32 1012.24 1012.20 1012.20 1012.24 1012.28 1012.28
1019.28 1019.04 1018.76 1018.48 1018.20 1017.92 1017.64 1017.32 1017.00 1016.68 1016.32 1015.92 1015.52 1015.16 1014.76 1014.40 1014.04 1013.64 1013.28 1012.92 1012.52 1012.08 1011.68 1011.24 1010.76 1010.20 1009.64 1009.28 1009.12 1009.12 1009.28 1009.44 1009.48 1009.48 1009.48 1009.56 1009.60 1009.64 1009.56 1009.52 1009.48 1009.52 1009.56 1009.60 1009.72 1009.80 1009.84 1009.84 1009.88 1009.92 1010.04 1010.28 1010.56 1010.88 1011.20 1011.48 1011.76 1011.96 1012.16 1012.32 1012.36 1012.44 1012.44 1012.44 1012.44 1012.44 1012.44 1012.44 1012.44
1019.36 1019.12 1018.88 1018.60 1018.28 1018.00 1017.72 1017.40 1017.08 1016.72 1016.32 1015.96 1015.56 1015.16 1014.76 1014.40 1014.04 1013.64 1013.28 1012.92 1012.56 1012.16 1011.76 1011.36 1010.92 1010.48 1010.04 1009.68 1009.40 1009.28 1009.24 1009.32 1009.36 1009.36 1009.44 1009.48 1009.52 1009.56 1009.56 1009.60 1009.64 1009.64 1009.64 1009.76 1009.88 1009.96 1010.04 1010.08 1010.16 1010.20 1010.32 1010.48 1010.76 1011.04 1011.36 1011.64 1011.88 1012.08 1012.28 1012.48 1012.56 1012.64 1012.64 1012.64 1012.64 1012.64 1012.60 1012.52 1012.48
1019.48 1019.20 1018.92 1018.64 1018.36 1018.12 1017.80 1017.48 1017.16 1016.76 1016.40 1016.00 1015.60 1015.20 1014.76 1014.40 1014.04 1013.64 1013.20 1012.88 1012.48 1012.20 1011.84 1011.48 1011.08 1010.72 1010.36 1010.08 1009.80 1009.60 1009.48 1009.44 1009.44 1009.48 1009.48 1009.52 1009.56 1009.60 1009.64 1009.72 1009.76 1009.80 1009.80 1009.88 1010.00 1010.12 1010.20 1010.28 1010.32 1010.40 1010.48 1010.64 1010.88 1011.20 1011.48 1011.76 1012.00 1012.20 1012.44 1012.64 1012.72 1012.76 1012.76 1012.76 1012.76 1012.76 1012.72 1012.64 1012.64
1019.60 1019.32 1019.04 1018.76 1018.48 1018.20 1017.92 1017.64 1017.28 1016.92 1016.48 1016.08 1015.64 1015.20 1014.80 1014.40 1014.00 1013.60 1013.20 1012.84 1012.48 1012.20 1011.92 1011.56 1011.20 1010.92 1010.64 1010.40 1010.20 1009.96 1009.80 1009.68 1009.68 1009.76 1009.80 1009.80 1009.80 1009.84 1009.92 1010.00 1010.04 1010.04 1010.04 1010.16 1010.28 1010.32 1010.40 1010.48 1010.48 1010.52 1010.64 1010.76 1011.00 1011.36 1011.64 1011.92 1012.20 1012.40 1012.56 1012.72 1012.80 1012.88 1012.88 1012.92 1012.88 1012.88 1012.84 1012.76 1012.72
1019.72 1019.44 1019.16 1018.88 1018.64 1018.32 1018.04 1017.76 1017.40 1017.04 1016.64 1016.20 1015.72 1015.28 1014.88 1014.48 1014.04 1013.64 1013.24 1012.84 1012.48 1012.20 1011.96 1011.64 1011.40 1011.16 1010.92 1010.72 1010.52 1010.36 1010.20 1010.12 1010.12 1010.12 1010.12 1010.12 1010.16 1010.20 1010.28 1010.32 1010.36 1010.36 1010.44 1010.56 1010.68 1010.76 1010.76 1010.76 1010.76 1010.76 1010.80 1010.96 1011.20 1011.52 1011.84 1012.12 1012.32 1012.52 1012.68 1012.80 1012.92 1012.96 1012.96 1012.96 1012.92 1012.92 1012.92 1012.88 1012.76
1019.88 1019.60 1019.28 1018.96 1018.76 1018.48 1018.20 1017.92 1017.56 1017.16 1016.72 1016.28 1015.84 1015.44 1015.04 1014.60 1014.20 1013.76 1013.36 1012.96 1012.68 1012.44 1012.20 1011.96 1011.76 1011.52 1011.36 1011.16 1011.00 1010.84 1010.68 1010.64 1010.64 1010.60 1010.56 1010.56 1010.60 1010.64 1010.72 1010.76 1010.76 1010.80 1010.92 1011.04 1011.20 1011.24 1011.28 1011.28 1011.28 1011.20 1011.20 1011.32 1011.48 1011.76 1012.04 1012.28 1012.48 1012.64 1012.80 1012.92 1012.96 1013.00 1013.00 1013.04 1013.04 1013.04 1013.04 1013.04 1012.96
1020.04 1019.72 1019.40 1019.12 1018.84 1018.56 1018.28 1018.00 1017.64 1017.24 1016.84 1016.44 1016.00 1015.60 1015.20 1014.76 1014.44 1014.04 1013.64 1013.32 1013.08 1012.88 1012.64 1012.44 1012.24 1012.08 1011.92 1011.76 1011.60 1011.44 1011.28 1011.20 1011.20 1011.16 1011.16 1011.16 1011.20 1011.20 1011.24 1011.28 1011.28 1011.36 1011.44 1011.60 1011.72 1011.80 1011.84 1011.84 1011.84 1011.76 1011.72 1011.68 1011.84 1012.04 1012.24 1012.48 1012.68 1012.80 1012.92 1012.96 1013.04 1013.04 1013.12 1013.20 1013.24 1013.24 1013.20 1013.20 1013.12
1020.20 1019.88 1019.52 1019.20 1018.92 1018.68 1018.40 1018.12 1017.76 1017.40 1017.00 1016.64 1016.20 1015.80 1015.44 1015.04 1014.76 1014.40 1014.08 1013.76 1013.52 1013.32 1013.12 1012.92 1012.76 1012.60 1012.44 1012.28 1012.12 1012.00 1011.88 1011.76 1011.76 1011.76 1011.72 1011.68 1011.72 1011.72 1011.68 1011.68 1011.72 1011.76 1011.92 1012.04 1012.20 1012.24 1012.28 1012.32 1012.32 1012.24 1012.16 1012.12 1012.20 1012.32 1012.52 1012.68 1012.84 1012.96 1013.04 1013.08 1013.16 1013.24 1013.32 1013.36 1013.44 1013.44 1013.36 1013.32 1013.24
1020.32 1020.00 1019.68 1019.36 1019.04 1018.76 1018.48 1018.24 1017.92 1017.60 1017.24 1016.88 1016.48 1016.04 1015.72 1015.36 1015.08 1014.80 1014.48 1014.20 1013.96 1013.76 1013.52 1013.36 1013.20 1013.00 1012.84 1012.72 1012.60 1012.48 1012.36 1012.32 1012.28 1012.20 1012.20 1012.16 1012.08 1012.04 1012.00 1011.96 1012.04 1012.16 1012.24 1012.36 1012.44 1012.48 1012.56 1012.64 1012.64 1012.64 1012.52 1012.48 1012.48 1012.64 1012.76 1012.92 1013.04 1013.12 1013.20 1013.24 1013.36 1013.44 1013.48 1013.48 1013.48 1013.48 1013.48 1013.36 1013.36
1020.44 1020.08 1019.76 1019.44 1019.12 1018.84 1018.64 1018.40 1018.16 1017.84 1017.48 1017.12 1016.72 1016.32 1015.96 1015.64 1015.48 1015.20 1014.92 1014.64 1014.36 1014.16 1013.96 1013.76 1013.64 1013.44 1013.28 1013.20 1013.04 1012.96 1012.88 1012.80 1012.76 1012.64 1012.56 1012.48 1012.44 1012.32 1012.24 1012.24 1012.32 1012.40 1012.48 1012.60 1012.68 1012.76 1012.88 1012.92 1012.92 1012.92 1012.88 1012.80 1012.80 1012.88 1013.00 1013.12 1013.20 1013.28 1013.36 1013.44 1013.48 1013.52 1013.60 1013.60 1013.60 1013.60 1013.56 1013.48 1013.44
1020.56 1020.20 1019.92 1019.56 1019.24 1018.96 1018.76 1018.56 1018.32 1018.04 1017.72 1017.36 1017.00 1016.64 1016.32 1016.04 1015.76 1015.52 1015.28 1015.04 1014.80 1014.56 1014.36 1014.20 1014.08 1013.92 1013.76 1013.64 1013.52 1013.44 1013.36 1013.28 1013.20 1013.04 1012.96 1012.88 1012.76 1012.64 1012.60 1012.56 1012.56 1012.64 1012.72 1012.76 1012.84 1012.92 1013.04 1013.08 1013.12 1013.12 1013.12 1013.08 1013.08 1013.12 1013.20 1013.28 1013.36 1013.44 1013.48 1013.56 1013.64 1013.64 1013.68 1013.72 1013.72 1013.68 1013.64 1013.60 1013.52
1020.72 1020.40 1020.04 1019.72 1019.36 1019.12 1018.92 1018.72 1018.48 1018.20 1017.92 1017.64 1017.36 1016.96 1016.64 1016.32 1016.08 1015.88 1015.64 1015.44 1015.20 1015.00 1014.80 1014.68 1014.56 1014.36 1014.24 1014.16 1014.04 1013.96 1013.88 1013.76 1013.64 1013.56 1013.44 1013.28 1013.16 1013.04 1013.00 1012.96 1012.96 1012.96 1012.96 1012.92 1012.96 1013.04 1013.16 1013.20 1013.20 1013.24 1013.28 1013.32 1013.28 1013.32 1013.36 1013.48 1013.52 1013.60 1013.64 1013.72 1013.76 1013.76 1013.80 1013.84 1013.80 1013.76 1013.76 1013.72 1013.64
1020.88 1020.56 1020.20 1019.92 1019.56 1019.28 1019.04 1018.88 1018.68 1018.44 1018.20 1017.92 1017.64 1017.28 1016.92 1016.64 1016.40 1016.20 1016.00 1015.80 1015.60 1015.40 1015.28 1015.16 1014.96 1014.80 1014.68 1014.64 1014.52 1014.40 1014.28 1014.20 1014.08 1013.96 1013.84 1013.72 1013.64 1013.56 1013.48 1013.48 1013.40 1013.36 1013.32 1013.32 1013.28 1013.28 1013.28 1013.32 1013.36 1013.36 1013.36 1013.36 1013.40 1013.48 1013.48 1013.60 1013.68 1013.76 1013.84 1013.92 1013.92 1013.92 1013.92 1013.96 1013.92 1013.92 1013.88 1013.84 1013.76
1021.04 1020.72 1020.40 1020.08 1019.76 1019.48 1019.24 1019.04 1018.88 1018.64 1018.40 1018.16 1017.84 1017.56 1017.24 1016.92 1016.68 1016.52 1016.36 1016.20 1016.04 1015.88 1015.72 1015.56 1015.36 1015.20 1015.08 1015.04 1014.92 1014.80 1014.68 1014.60 1014.48 1014.36 1014.24 1014.16 1014.08 1014.04 1014.00 1013.92 1013.84 1013.76 1013.68 1013.64 1013.60 1013.60 1013.56 1013.48 1013.48 1013.48 1013.48 1013.52 1013.60 1013.68 1013.76 1013.88 1013.92 1014.04 1014.04 1014.08 1014.12 1014.08 1014.08 1014.08 1014.04 1014.04 1014.04 1013.96 1013.88
1021.24 1020.92 1020.60 1020.28 1020.00 1019.72 1019.48 1019.20 1019.00 1018.80 1018.60 1018.32 1018.04 1017.80 1017.52 1017.24 1017.04 1016.84 1016.72 1016.56 1016.36 1016.20 1016.04 1015.84 1015.64 1015.52 1015.44 1015.36 1015.24 1015.12 1015.04 1014.96 1014.88 1014.76 1014.72 1014.68 1014.64 1014.56 1014.48 1014.36 1014.24 1014.12 1014.04 1013.96 1013.96 1013.92 1013.84 1013.76 1013.72 1013.68 1013.72 1013.76 1013.84 1013.96 1014.04 1014.08 1014.16 1014.20 1014.24 1014.24 1014.24 1014.24 1014.24 1014.20 1014.24 1014.24 1014.20 1014.16 1014.08
1021.44 1021.08 1020.76 1020.48 1020.20 1019.92 1019.64 1019.36 1019.16 1018.92 1018.76 1018.52 1018.24 1018.00 1017.76 1017.56 1017.36 1017.12 1016.96 1016.88 1016.72 1016.48 1016.28 1016.08 1015.92 1015.76 1015.68 1015.60 1015.48 1015.40 1015.36 1015.28 1015.20 1015.20 1015.20 1015.16 1015.12 1015.04 1014.92 1014.76 1014.64 1014.48 1014.32 1014.28 1014.20 1014.16 1014.04 1014.00 1013.92 1013.92 1013.92 1013.96 1014.04 1014.16 1014.20 1014.28 1014.32 1014.32 1014.36 1014.36 1014.36 1014.40 1014.40 1014.36 1014.40 1014.44 1014.40 1014.32 1014.32
1021.60 1021.28 1020.96 1020.68 1020.40 1020.12 1019.80 1019.56 1019.32 1019.08 1018.92 1018.68 1018.44 1018.20 1018.00 1017.80 1017.60 1017.36 1017.20 1017.04 1016.92 1016.76 1016.56 1016.36 1016.20 1016.08 1015.96 1015.84 1015.76 1015.64 1015.60 1015.56 1015.52 1015.52 1015.48 1015.48 1015.40 1015.32 1015.20 1015.08 1014.96 1014.76 1014.56 1014.48 1014.40 1014.36 1014.32 1014.20 1014.08 1014.04 1014.04 1014.08 1014.20 1014.32 1014.36 1014.36 1014.44 1014.48 1014.52 1014.52 1014.52 1014.56 1014.60 1014.60 1014.60 1014.64 1014.60 1014.56 1014.48
1021.72 1021.44 1021.20 1020.88 1020.60 1020.28 1020.00 1019.76 1019.48 1019.28 1019.04 1018.84 1018.60 1018.36 1018.20 1018.00 1017.76 1017.56 1017.36 1017.20 1017.08 1016.96 1016.80 1016.64 1016.52 1016.40 1016.24 1016.12 1016.04 1015.92 1015.84 1015.80 1015.76 1015.76 1015.76 1015.68 1015.64 1015.52 1015.44 1015.36 1015.24 1015.04 1014.80 1014.68 1014.60 1014.52 1014.48 1014.36 1014.24 1014.20 1014.20 1014.24 1014.36 1014.48 1014.52 1014.56 1014.60 1014.64 1014.64 1014.68 1014.68 1014.72 1014.76 1014.76 1014.76 1014.76 1014.76 1014.76 1014.68
1021.88 1021.64 1021.36 1021.04 1020.76 1020.48 1020.20 1019.96 1019.72 1019.48 1019.20 1019.00 1018.76 1018.60 1018.36 1018.16 1017.96 1017.76 1017.52 1017.32 1017.16 1017.04 1016.96 1016.88 1016.76 1016.64 1016.52 1016.40 1016.28 1016.20 1016.12 1016.08 1016.04 1015.96 1015.92 1015.92 1015.84 1015.72 1015.64 1015.60 1015.48 1015.32 1015.04 1014.88 1014.76 1014.64 1014.52 1014.48 1014.32 1014.32 1014.36 1014.48 1014.56 1014.64 1014.64 1014.72 1014.76 1014.80 1014.84 1014.84 1014.88 1014.92 1014.92 1014.92 1014.96 1014.96 1014.96 1014.92 1014.92
1022.04 1021.76 1021.48 1021.20 1020.92 1020.68 1020.44 1020.16 1019.92 1019.64 1019.40 1019.20 1019.00 1018.76 1018.52 1018.32 1018.12 1017.92 1017.72 1017.48 1017.24 1017.12 1017.04 1016.96 1016.92 1016.84 1016.76 1016.64 1016.56 1016.48 1016.40 1016.32 1016.28 1016.20 1016.16 1016.08 1016.04 1015.96 1015.92 1015.84 1015.72 1015.52 1015.28 1015.04 1014.80 1014.64 1014.52 1014.48 1014.44 1014.44 1014.52 1014.64 1014.76 1014.80 1014.84 1014.92 1014.96 1015.00 1015.04 1015.08 1015.08 1015.08 1015.08 1015.08 1015.16 1015.16 1015.16 1015.08 1015.04
1022.20 1021.92 1021.68 1021.44 1021.16 1020.88 1020.64 1020.36 1020.12 1019.84 1019.64 1019.40 1019.20 1018.96 1018.76 1018.56 1018.32 1018.12 1017.92 1017.64 1017.44 1017.24 1017.08 1017.04 1017.04 1017.00 1016.92 1016.88 1016.80 1016.76 1016.68 1016.60 1016.48 1016.40 1016.32 1016.28 1016.20 1016.20 1016.12 1016.00 1015.92 1015.72 1015.44 1015.08 1014.76 1014.56 1014.48 1014.44 1014.48 1014.52 1014.68 1014.80 1014.92 1014.96 1015.00 1015.04 1015.16 1015.20 1015.20 1015.24 1015.28 1015.28 1015.28 1015.28 1015.32 1015.36 1015.32 1015.24 1015.16
1022.32 1022.12 1021.88 1021.64 1021.36 1021.08 1020.84 1020.60 1020.32 1020.08 1019.84 1019.64 1019.36 1019.16 1018.96 1018.76 1018.56 1018.32 1018.08 1017.92 1017.72 1017.48 1017.24 1017.12 1017.12 1017.16 1017.12 1017.08 1017.04 1017.00 1016.92 1016.80 1016.68 1016.60 1016.48 1016.40 1016.32 1016.24 1016.20 1016.12 1015.96 1015.76 1015.48 1015.08 1014.76 1014.52 1014.48 1014.44 1014.48 1014.64 1014.84 1014.96 1015.04 1015.08 1015.16 1015.24 1015.32 1015.36 1015.40 1015.44 1015.44 1015.48 1015.48 1015.48 1015.52 1015.56 1015.52 1015.40 1015.20
1022.48 1022.28 1022.04 1021.80 1021.52 1021.28 1021.04 1020.76 1020.52 1020.32 1020.04 1019.80 1019.56 1019.32 1019.08 1018.92 1018.68 1018.48 1018.32 1018.12 1018.00 1017.76 1017.52 1017.36 1017.32 1017.32 1017.28 1017.20 1017.20 1017.12 1017.04 1016.96 1016.88 1016.76 1016.64 1016.48 1016.32 1016.24 1016.20 1016.16 1016.00 1015.80 1015.56 1015.16 1014.88 1014.68 1014.64 1014.60 1014.68 1014.80 1015.00 1015.12 1015.20 1015.28 1015.36 1015.44 1015.48 1015.52 1015.60 1015.64 1015.64 1015.64 1015.68 1015.72 1015.76 1015.76 1015.76 1015.68 1015.44
1022.64 1022.44 1022.20 1021.96 1021.72 1021.48 1021.20 1020.92 1020.76 1020.52 1020.28 1020.04 1019.72 1019.48 1019.24 1019.08 1018.80 1018.64 1018.48 1018.32 1018.16 1018.00 1017.80 1017.64 1017.56 1017.48 1017.44 1017.36 1017.32 1017.24 1017.16 1017.04 1016.96 1016.88 1016.72 1016.56 1016.40 1016.28 1016.20 1016.20 1016.04 1015.88 1015.64 1015.32 1015.08 1014.92 1014.88 1014.80 1014.92 1015.04 1015.20 1015.32 1015.40 1015.48 1015.52 1015.60 1015.64 1015.72 1015.76 1015.80 1015.80 1015.84 1015.88 1015.92 1015.92 1015.96 1016.00 1015.96 1015.84
1022.76 1022.56 1022.32 1022.08 1021.88 1021.64 1021.36 1021.16 1020.92 1020.68 1020.48 1020.20 1019.92 1019.68 1019.48 1019.24 1019.04 1018.80 1018.64 1018.48 1018.28 1018.16 1018.00 1017.84 1017.76 1017.64 1017.60 1017.48 1017.40 1017.32 1017.20 1017.08 1017.00 1016.92 1016.76 1016.64 1016.52 1016.40 1016.32 1016.24 1016.16 1016.00 1015.80 1015.56 1015.36 1015.20 1015.12 1015.04 1015.04 1015.20 1015.36 1015.52 1015.64 1015.68 1015.72 1015.76 1015.84 1015.92 1015.96 1015.96 1015.96 1016.00 1016.04 1016.08 1016.16 1016.16 1016.20 1016.20 1016.16
Wind_Speed
7 8 8 8 9 8 8 8 9 9 9 9 10 10 10 11 11 11 11 11 11 11 11 11 11 9 8 8 7 5 5 6 8 6 2 3 5 5 5 4 4 4 3 3 3 3 4 4 3 3 2 2 2 2 2 2 2 2 2 1 1 1 1 1 1 1 1 2 1
8 9 9 10 10 9 9 9 9 9 9 9 9 10 10 10 11 11 11 12 12 12 12 11 12 12 11 10 8 6 4 5 7 6 3 3 5 6 6 6 5 5 4 3 3 3 3 4 4 3 2 2 2 2 2 2 2 2 2 1 1 1 1 1 1 1 2 1 1
9 10 10 10 10 9 9 9 9 10 11 10 10 10 10 10 10 11 11 12 13 13 13 12 13 14 13 11 10 8 6 6 8 8 5 3 5 7 7 7 6 5 4 3 3 3 4 4 4 3 3 2 3 3 2 2 3 3 2 2 1 1 0 0 1 1 1 1 1
10 10 10 10 11 11 10 10 11 12 12 11 11 11 11 10 10 11 12 13 14 14 14 14 14 14 13 11 11 10 10 10 11 11 8 4 6 7 8 7 6 4 3 2 3 4 4 4 4 3 3 3 3 3 3 2 3 3 2 1 1 1 1 1 1 0 0 0 0
11 11 11 10 11 11 11 10 12 12 12 11 11 11 11 10 11 11 12 13 13 14 15 17 16 15 14 12 12 12 11 12 13 11 8 6 7 8 8 9 8 6 4 3 4 4 5 5 4 3 3 3 3 3 3 3 4 3 2 1 2 2 2 2 2 1 1 1 1
12 12 12 11 12 11 11 11 12 12 12 12 12 12 12 11 11 12 13 14 15 16 18 19 18 16 15 14 13 12 11 11 11 8 6 6 6 7 8 9 9 8 6 5 5 6 6 5 4 3 3 3 4 4 4 5 5 4 3 3 2 2 2 3 2 2 2 2 2
13 13 13 12 12 12 12 12 13 13 13 12 14 15 15 14 15 16 17 16 16 16 17 16 16 15 14 14 13 12 11 10 9 6 4 5 6 7 7 8 8 8 8 7 7 7 6 6 4 4 3 4 3 4 5 5 5 4 4 3 2 2 2 3 2 2 3 3 3
13 13 13 13 13 13 13 14 14 14 13 12 14 16 17 18 18 19 18 17 16 15 15 14 15 15 15 13 13 12 12 11 10 6 2 4 6 7 7 7 7 6 6 7 7 7 7 6 4 4 4 3 3 4 4 6 5 5 4 4 3 2 2 2 3 3 4 4 4
13 13 13 13 13 13 14 15 15 15 14 14 15 16 17 18 19 19 17 15 15 15 15 14 16 17 16 13 12 12 11 11 9 6 3 2 5 6 7 7 7 6 4 4 5 6 7 5 4 4 4 4 3 4 5 6 6 6 5 4 4 4 3 3 3 4 4 4 4
13 13 14 13 14 14 15 15 15 15 15 15 16 16 17 18 18 17 16 14 15 16 16 16 17 18 17 14 11 9 8 8 8 6 3 2 4 6 6 6 7 6 5 3 3 4 5 5 5 5 4 4 5 5 6 7 7 6 5 4 4 5 5 4 4 4 4 3 3
14 14 14 14 15 16 16 15 14 14 14 14 15 16 16 17 17 17 16 16 16 17 17 17 18 17 16 13 9 6 5 6 6 5 2 1 3 5 6 6 7 6 5 4 3 3 3 4 6 6 5 5 5 6 7 7 7 6 5 4 4 5 5 5 5 4 3 3 4
15 15 15 15 15 16 15 15 13 13 13 14 15 15 15 15 17 17 18 18 18 18 18 17 17 16 14 10 6 4 4 5 6 5 2 1 3 5 5 6 6 7 6 5 3 3 4 5 6 7 7 6 6 6 7 8 7 6 5 4 4 4 4 5 5 4 4 4 5
15 16 16 16 16 15 15 14 13 13 13 15 15 15 15 15 16 17 18 18 18 17 16 17 17 15 12 8 5 3 3 4 5 4 2 1 3 4 5 5 6 6 6 5 4 4 5 6 8 9 8 8 7 7 8 8 7 6 5 4 4 4 4 5 5 5 5 6 6
16 16 16 16 16 15 14 14 13 12 13 15 15 15 14 14 15 16 16 16 16 16 16 17 16 13 10 8 6 5 4 5 4 4 3 2 2 3 4 5 5 5 5 5 5 5 6 7 8 9 9 9 9 8 8 8 7 6 5 5 4 4 4 5 5 5 6 7 6
16 16 16 16 16 15 14 14 12 12 13 14 14 14 14 13 14 15 15 15 16 15 15 16 15 13 10 9 8 7 6 6 5 4 4 4 4 3 3 4 5 5 5 5 5 6 7 8 9 9 9 10 10 9 9 8 7 6 6 5 5 5 5 5 5 6 6 6 5
16 16 16 16 16 15 14 14 11 11 12 13 14 14 14 13 13 14 15 15 14 13 14 16 16 13 9 8 9 10 9 7 6 6 5 6 4 2 2 4 5 5 5 6 6 6 7 8 8 9 10 10 10 10 9 9 8 7 7 6 6 5 5 5 5 5 5 5 5
16 16 16 16 16 16 16 14 13 12 13 14 15 15 14 13 13 13 14 15 13 13 14 16 15 13 10 6 6 8 9 8 8 7 7 7 5 3 3 4 5 6 7 8 8 8 8 8 8 9 10 11 11 10 10 9 8 8 8 7 7 6 6 6 5 5 5 5 5
16 15 15 15 16 16 16 16 15 15 16 16 16 15 14 14 14 14 14 14 13 13 14 15 14 13 11 9 5 3 4 6 6 6 7 6 6 6 6 6 6 7 8 9 9 9 9 9 9 10 11 11 11 11 10 9 9 9 9 8 7 6 6 6 5 5 5 5 6
16 15 15 15 15 15 16 17 17 17 17 16 16 15 15 15 15 14 14 13 13 13 13 14 13 12 11 11 9 7 4 1 1 2 2 3 5 6 7 7 6 7 8 9 9 9 9 10 10 11 11 11 11 11 10 10 9 9 8 8 7 6 6 6 5 5 5 6 6
16 15 15 14 15 15 16 16 17 17 17 16 16 17 17 17 16 15 14 14 13 12 12 12 11 10 10 10 10 9 7 6 7 7 7 6 7 8 8 8 8 8 8 9 9 9 9 10 10 11 11 12 12 11 11 10 9 9 8 7 7 6 6 6 6 6 6 6 6
15 15 14 14 14 15 15 16 16 17 17 17 17 18 17 17 16 16 15 13 12 11 11 11 11 11 11 10 10 9 9 8 10 10 10 10 11 10 10 10 10 10 10 10 10 10 10 10 10 11 11 12 12 12 11 9 9 8 8 7 6 6 6 6 6 6 6 6 6
14 14 14 14 14 14 15 16 17 17 17 17 18 18 18 17 17 16 15 13 12 12 12 12 12 13 13 13 12 12 11 11 11 11 11 11 11 11 11 11 12 12 12 12 11 11 10 10 10 11 11 12 12 11 11 10 9 8 8 7 6 6 6 6 6 6 6 6 6
14 14 13 13 13 14 15 16 17 17 18 18 18 18 17 17 17 16 15 14 13 14 14 13 13 14 15 14 14 14 13 13 13 12 12 12 11 11 11 11 12 12 12 11 10 10 9 9 10 10 10 10 11 11 10 9 9 8 8 7 7 6 6 6 6 5 5 5 6
15 14 13 12 13 14 14 15 16 17 18 18 18 18 17 16 16 16 15 15 14 14 14 12 12 13 14 14 14 14 14 13 13 12 12 11 11 11 10 10 10 10 10 9 9 9 9 7 7 8 8 9 9 9 9 9 8 7 7 7 6 6 5 5 5 4 4 5 5
15 15 15 14 13 13 13 15 16 17 18 18 18 17 16 15 15 15 15 15 14 14 14 13 12 12 13 13 14 14 14 13 13 12 11 11 10 10 9 8 9 8 9 10 13 14 12 10 8 7 7 7 8 8 8 8 8 7 7 7 6 5 5 4 4 4 4 4 4
15 15 15 15 14 13 13 15 15 17 18 18 18 17 16 14 13 14 14 15 14 14 13 13 13 13 13 13 14 14 14 13 13 12 12 11 11 10 9 7 7 7 9 12 16 16 15 13 11 9 7 6 6 7 7 7 7 8 7 7 6 5 5 5 4 4 4 4 3
15 15 15 15 14 13 13 14 15 16 17 18 18 17 15 13 12 13 14 14 14 13 13 12 12 12 13 13 15 15 15 13 13 14 13 13 13 12 11 8 7 7 9 14 16 17 16 15 13 11 8 6 6 6 6 6 7 7 7 6 6 6 6 6 5 5 4 4 3
16 16 16 16 15 14 14 14 15 16 17 18 18 17 15 13 13 13 13 13 13 13 12 11 11 10 10 11 13 14 15 14 14 14 14 14 15 14 13 11 9 10 12 16 16 16 15 15 13 12 10 7 6 5 5 5 5 5 5 6 6 6 6 6 5 5 5 5 4
17 17 17 17 16 15 15 14 15 15 16 16 17 17 16 13 12 12 12 12 12 12 10 9 9 9 10 11 12 13 14 14 13 13 14 15 15 15 14 13 11 13 16 18 16 15 14 14 13 12 11 9 5 4 4 5 5 5 5 5 5 5 6 6 5 5 5 5 5
17 17 17 17 16 16 16 15 15 15 15 14 16 16 16 14 12 12 12 12 11 10 9 8 9 10 11 11 11 12 12 13 13 14 15 16 16 15 13 13 12 13 15 18 17 15 13 12 12 12 11 10 7 6 5 5 5 5 4 5 5 6 6 6 6 6 6 6 6
17 17 17 17 16 16 16 15 15 15 14 14 15 16 16 15 12 11 11 11 10 9 9 9 10 11 11 10 10 11 12 12 13 14 14 15 15 14 13 12 12 12 14 16 15 14 12 11 11 11 10 10 7 5 4 5 5 5 5 5 6 6 6 6 6 7 7 6 6
16 16 16 16 16 16 16 16 15 14 14 14 14 15 15 15 13 11 9 9 9 9 9 9 10 10 10 10 10 10 11 12 12 13 13 13 13 12 12 11 11 11 12 14 13 12 11 10 10 10 10 9 7 5 4 5 5 5 5 6 7 7 6 6 6 6 7 6 6
15 16 16 16 16 16 16 15 15 14 14 14 14 15 15 15 13 11 9 8 8 8 8 8 9 9 9 9 9 9 10 11 11 12 12 11 11 11 11 10 9 11 13 13 11 10 9 9 9 9 10 10 7 5 4 4 4 5 5 6 6 7 7 6 6 6 6 6 5
15 15 16 16 16 16 15 15 15 14 15 14 14 15 15 14 14 12 10 8 7 6 6 7 7 7 7 7 8 8 9 9 9 9 10 10 10 10 10 9 7 10 13 13 11 9 8 7 8 10 11 11 8 6 5 5 5 5 6 6 6 6 6 6 6 6 6 6 5
15 15 16 16 16 15 15 15 15 15 15 15 15 15 14 14 14 13 12 10 8 6 5 5 5 6 6 7 7 8 8 8 8 8 8 8 8 9 9 8 8 10 13 12 10 8 6 6 8 10 12 11 8 6 6 6 6 6 6 6 6 6 5 5 5 5 5 5 5
15 15 16 16 16 15 15 15 15 15 15 15 15 14 14 13 13 13 12 12 10 7 4 4 4 5 6 6 7 7 7 7 7 7 7 7 7 7 7 7 8 10 11 11 10 7 6 6 9 11 11 9 6 6 6 6 6 6 6 6 5 5 5 5 4 4 4 4 5
14 15 15 15 15 15 15 15 15 15 16 16 14 13 13 13 12 12 12 12 11 9 6 3 4 4 5 6 6 6 6 5 5 5 6 6 6 5 5 6 6 8 10 11 10 8 6 7 10 12 11 7 6 6 6 5 5 5 6 5 4 4 4 4 4 4 5 5 6
14 14 14 14 15 14 14 14 15 15 16 15 14 13 12 11 11 11 11 11 11 10 9 6 4 5 5 6 5 5 5 5 5 5 5 4 5 5 5 5 6 8 10 12 12 9 7 10 13 13 11 7 6 5 5 5 5 5 5 5 4 4 4 4 5 5 6 8 10
13 13 13 14 14 14 14 14 14 15 15 14 14 13 12 11 10 10 10 10 10 10 10 8 7 6 6 6 5 5 5 5 5 5 4 4 5 6 6 5 6 8 10 14 13 10 10 13 14 14 12 8 6 5 4 4 4 4 4 4 4 5 5 5 5 6 7 10 13
13 14 14 14 14 14 14 14 14 14 13 13 14 13 12 12 11 10 10 8 8 8 8 8 7 7 6 6 5 5 5 4 4 4 4 4 6 7 8 6 6 8 10 14 14 11 12 14 15 14 12 8 6 5 4 4 4 4 4 4 4 4 5 6 6 6 7 8 11
13 14 14 14 13 13 13 14 14 13 13 13 13 12 12 11 11 10 9 8 9 8 7 6 6 6 5 5 4 4 4 4 4 4 3 4 5 6 7 5 6 7 9 13 14 11 11 13 14 13 11 8 5 4 4 4 4 4 4 3 3 4 4 5 5 5 6 6 7
Wind_Direction
345 341 336 330 327 323 319 315 312 311 310 309 309 308 307 305 302 300 299 298 297 298 299 300 298 293 284 274 263 247 231 237 253 259 267 79 80 74 64 50 39 38 44 59 73 87 95 99 95 90 84 85 91 91 88 86 88 85 83 83 105 126 135 140 170 186 187 183 177
340 337 332 328 325 322 318 314 313 312 311 309 307 305 304 302 300 299 298 297 296 296 297 297 296 293 286 275 266 250 224 213 235 242 238 107 94 87 79 68 56 47 41 46 61 75 86 93 94 90 82 74 72 64 60 58 64 59 49 31 45 116 135 157 196 201 192 183 172
336 333 330 327 325 322 318 315 313 312 310 308 306 304 303 301 299 299 298 297 297 297 296 296 298 297 293 282 274 264 250 234 234 233 226 149 114 103 95 85 71 59 50 52 63 74 82 86 89 89 87 81 73 64 52 43 52 52 40 7 354 358 8 225 216 202 185 171 161
333 331 328 325 324 321 318 314 312 311 310 308 306 304 302 301 300 299 298 298 297 296 296 297 300 301 300 293 285 275 264 252 240 233 222 178 138 125 118 110 100 91 82 82 85 85 85 84 83 82 84 85 82 75 65 55 56 54 46 15 3 354 343 317 312 337 96 111 144
331 330 327 325 323 320 317 313 312 311 310 309 307 306 304 303 302 301 300 299 298 296 296 297 298 298 297 295 292 284 272 256 244 232 211 169 148 138 134 131 133 137 139 125 108 99 93 88 83 78 76 77 77 75 71 66 60 55 45 25 17 8 356 347 347 357 17 34 38
330 329 327 325 323 319 317 314 313 312 311 310 308 306 305 304 303 302 301 298 296 294 294 293 292 291 289 286 287 287 281 266 252 233 201 161 147 139 137 138 144 147 147 134 118 107 99 93 87 80 73 68 65 62 60 62 60 53 41 23 17 14 9 4 356 356 6 13 8
330 328 327 325 322 319 317 316 315 315 313 310 308 306 305 303 301 299 297 295 293 292 291 290 290 289 286 278 276 278 281 280 270 251 199 148 136 131 131 133 137 139 139 134 125 117 111 105 99 92 86 82 72 60 54 58 58 52 41 24 17 18 19 10 3 5 10 10 2
329 327 325 323 321 319 319 319 318 317 314 311 308 306 304 302 300 298 296 294 292 291 290 290 291 290 287 276 268 266 269 275 276 270 229 137 127 124 122 121 122 126 132 136 134 131 127 118 114 111 109 102 90 71 59 56 54 49 38 21 10 11 19 17 13 15 17 14 4
329 327 325 323 323 322 322 321 319 316 313 309 306 305 304 303 302 301 299 297 294 293 292 291 292 293 290 281 267 261 262 266 269 268 254 138 122 118 116 114 113 113 117 128 136 137 134 125 118 115 114 107 95 78 64 57 52 45 36 22 9 2 4 12 14 17 19 18 9
329 328 327 326 326 325 324 322 319 315 312 308 307 307 307 307 307 306 304 302 300 298 295 292 292 292 289 284 273 265 263 267 267 263 247 149 120 116 114 113 112 109 105 102 120 130 129 122 114 110 106 99 91 81 71 64 56 47 37 26 16 7 4 4 8 10 13 16 13
330 329 329 329 329 328 326 323 320 317 314 312 312 311 311 311 311 310 308 307 304 301 297 293 290 288 285 282 276 272 273 276 275 270 253 145 116 112 111 111 110 107 104 97 97 105 110 110 107 102 95 89 88 82 76 70 64 56 45 32 26 19 13 6 6 8 11 14 18
332 332 332 331 331 328 326 323 321 319 317 317 317 316 315 313 313 312 311 309 306 303 300 297 292 286 280 274 272 273 279 279 281 281 279 115 104 103 103 104 105 105 104 101 100 100 102 103 101 97 90 84 83 80 77 73 70 65 56 42 38 32 23 12 10 13 21 29 29
335 335 334 334 332 329 327 325 323 322 321 321 320 319 317 313 313 312 311 309 308 307 306 304 297 288 277 261 254 256 269 274 283 292 309 61 87 91 93 95 98 99 101 100 101 103 103 102 100 96 91 84 80 78 77 77 76 72 66 55 45 35 26 16 17 23 31 37 36
337 336 336 335 333 331 330 329 327 325 323 321 320 318 316 313 313 313 311 309 310 310 310 310 303 292 273 242 230 233 248 261 279 297 318 342 25 57 74 85 89 92 95 96 96 98 100 101 100 98 95 90 83 79 78 78 78 76 72 65 54 41 29 20 23 31 38 40 38
338 338 337 336 335 334 333 332 328 325 322 319 318 318 316 314 314 313 312 311 311 311 312 315 311 298 274 234 217 217 229 246 261 280 297 309 332 6 52 78 83 87 90 93 90 90 93 96 98 99 98 94 88 83 80 78 77 75 72 67 58 47 35 26 30 38 44 45 39
339 339 338 337 337 337 336 334 329 325 322 319 319 319 317 315 314 313 313 313 313 313 315 319 318 309 287 239 216 211 217 232 241 251 260 270 285 320 61 84 88 91 91 88 84 83 86 90 95 97 97 94 90 87 83 81 78 76 71 66 58 50 40 34 37 41 45 47 42
339 338 337 337 337 337 336 334 331 327 324 321 321 320 318 316 314 314 315 314 314 315 317 321 323 323 316 288 235 216 215 222 228 231 233 235 227 200 137 107 104 102 99 94 91 89 88 89 92 93 93 93 92 90 88 86 84 79 74 67 61 54 47 43 43 45 48 49 44
339 338 336 335 335 335 335 334 332 329 326 323 322 321 319 317 316 315 314 314 314 316 318 320 324 330 337 341 330 279 228 219 217 215 211 205 186 162 138 120 113 109 107 104 102 99 96 94 93 94 94 95 94 93 91 89 87 83 78 73 67 62 56 51 48 48 50 52 46
339 337 336 334 334 334 334 333 332 330 327 324 323 322 321 320 318 316 314 313 315 317 319 320 324 332 342 351 354 354 353 343 135 144 143 142 130 120 113 105 103 102 101 101 101 100 99 98 98 98 98 97 95 93 92 90 88 86 84 81 76 70 65 60 55 53 52 52 48
339 337 335 334 335 335 334 334 332 330 328 326 326 325 325 324 322 320 317 315 316 319 321 322 327 336 345 352 356 0 9 29 45 52 57 63 71 76 79 80 80 80 80 82 86 89 92 95 97 98 98 96 94 93 92 91 91 90 89 86 81 75 71 66 60 56 53 50 48
337 335 334 334 335 336 336 336 334 332 330 329 329 329 330 330 329 327 324 321 325 329 334 337 344 351 357 2 5 12 22 36 42 45 47 50 54 57 60 63 63 64 65 66 68 72 77 83 87 91 93 93 94 94 94 94 92 92 90 88 83 78 73 67 62 57 53 49 46
335 334 333 334 335 337 338 338 337 336 334 333 333 334 335 336 337 336 336 338 348 355 359 1 7 12 15 18 22 27 33 39 40 41 42 45 49 51 54 56 57 58 59 60 60 62 65 70 75 81 86 90 92 93 94 94 93 92 90 88 83 77 71 66 62 58 54 49 46
335 334 333 333 335 337 340 341 341 340 338 337 338 339 340 342 344 346 350 359 8 13 14 15 19 23 26 28 30 32 35 39 40 41 43 45 48 52 54 57 58 59 59 59 58 59 61 64 67 73 79 84 87 89 90 90 90 90 88 85 80 75 71 69 65 61 57 52 48
334 334 334 332 334 337 341 344 344 343 342 340 341 342 344 348 351 353 358 7 14 17 18 19 23 26 29 32 33 35 37 40 42 43 45 48 52 55 58 61 63 64 65 66 66 65 64 63 63 66 71 77 81 83 85 85 86 85 84 82 79 77 76 74 71 67 61 55 50
334 334 333 332 334 338 344 347 347 346 344 343 343 344 347 353 356 358 2 8 13 16 19 22 24 27 30 33 34 36 38 39 40 42 45 48 52 56 60 65 69 72 75 77 77 75 73 70 68 66 68 72 77 80 82 83 84 83 83 82 82 80 77 73 69 67 63 59 53
335 335 334 333 335 341 347 349 349 348 347 345 345 346 349 356 360 3 5 9 12 15 18 22 25 29 32 34 35 35 36 36 36 37 40 43 47 50 54 61 70 78 85 87 85 83 81 79 77 75 72 72 77 80 82 83 84 84 83 82 79 76 71 65 58 54 53 55 53
338 337 337 336 339 345 350 351 351 351 350 349 347 347 350 356 3 7 10 12 13 15 18 22 26 30 33 34 35 35 34 34 33 34 35 37 40 42 44 48 58 73 87 92 92 91 90 87 85 83 82 80 81 85 87 88 88 86 84 80 75 70 65 59 51 45 41 38 37
342 341 340 340 344 349 352 353 353 354 353 351 349 348 350 357 5 9 12 15 16 17 19 23 26 29 31 33 34 35 35 34 33 32 32 33 34 36 36 37 42 55 68 77 84 88 90 90 89 88 87 86 85 86 88 88 85 82 78 75 70 65 61 56 49 42 35 28 22
344 343 344 345 348 351 353 354 354 354 354 353 351 350 351 356 4 10 13 16 20 21 22 23 26 30 33 34 34 35 35 35 33 32 31 30 30 30 30 31 35 42 49 54 61 70 77 83 86 87 86 83 76 70 69 73 72 70 67 66 63 60 56 52 46 40 33 27 20
346 346 346 348 350 351 353 353 354 354 354 353 353 352 353 355 3 8 12 14 19 22 25 27 31 34 35 35 35 36 36 36 34 33 31 30 27 25 23 23 26 33 38 41 44 49 58 69 76 79 81 79 74 68 64 67 68 68 66 65 61 58 55 50 44 38 32 26 20
347 347 348 348 350 351 352 352 352 353 353 353 354 355 355 355 0 6 10 10 13 16 22 28 33 35 36 35 37 38 39 38 37 36 33 30 26 22 18 15 18 26 33 36 36 38 43 53 64 72 77 80 78 76 73 74 74 73 70 66 62 58 53 49 42 36 31 26 23
347 347 348 349 349 350 350 350 351 351 352 353 355 356 356 355 356 1 6 7 6 8 13 21 28 32 33 34 38 41 42 43 42 40 37 33 28 22 16 12 10 16 25 32 33 33 34 41 53 65 73 79 80 79 76 79 77 74 70 67 63 58 54 49 42 35 31 28 27
346 347 348 348 348 348 349 349 349 349 351 352 354 355 356 354 353 354 359 4 3 4 7 13 20 25 29 32 36 41 45 47 46 44 40 36 31 24 19 12 5 7 13 23 27 29 31 35 47 57 65 68 68 65 65 72 75 74 72 69 64 60 56 50 45 38 33 31 31
345 347 348 347 347 347 347 348 348 348 350 352 353 353 354 353 352 350 352 358 0 1 2 7 14 19 24 28 34 40 45 48 47 45 41 36 31 25 20 13 2 1 4 12 16 21 28 36 49 57 61 60 59 57 56 60 65 70 73 73 69 64 58 53 47 42 38 34 34
344 346 347 346 346 346 347 347 348 348 349 351 351 351 351 352 351 349 347 349 352 354 358 4 10 16 21 25 32 39 44 47 47 46 43 38 32 25 18 10 357 355 357 2 4 11 25 45 60 65 65 62 59 57 56 56 58 61 66 72 71 68 63 56 50 45 41 40 37
344 345 346 345 345 346 347 348 348 348 348 349 350 350 349 349 349 348 346 346 345 345 349 2 10 18 22 25 30 35 39 43 45 45 44 41 35 26 16 3 350 347 348 353 355 2 24 63 74 75 72 67 62 58 56 55 54 53 54 61 67 68 65 60 51 45 41 44 45
345 345 345 344 345 346 347 348 348 348 348 347 347 348 348 347 347 346 346 346 344 342 344 359 19 25 25 23 24 25 27 33 37 40 40 40 38 30 16 359 344 338 340 345 351 2 33 82 86 82 76 68 63 59 57 54 52 49 47 50 56 60 61 57 46 36 32 37 50
345 345 345 344 345 346 347 348 349 349 347 346 345 346 347 348 347 347 347 348 346 345 346 359 25 33 28 20 18 16 16 22 26 28 27 26 31 29 19 360 342 335 338 345 356 14 52 89 90 85 79 70 64 60 58 54 50 46 44 42 47 49 51 51 43 32 26 27 42
346 346 346 346 346 346 347 348 349 348 346 344 344 345 347 349 348 348 347 348 347 348 351 1 20 31 30 21 16 11 9 13 15 15 11 6 18 24 22 6 346 339 342 350 5 30 67 89 86 82 77 71 65 60 58 54 49 45 41 39 46 50 51 50 46 36 27 22 28
348 347 347 347 347 347 346 348 348 347 345 343 344 346 347 348 348 348 348 349 349 350 353 2 14 21 24 19 13 5 359 358 356 355 356 357 11 19 19 8 351 344 346 354 12 39 73 88 85 81 77 71 65 61 58 54 48 42 37 36 49 56 56 52 46 40 31 21 19
348 348 348 348 347 347 346 347 347 346 344 343 345 345 346 347 347 349 351 353 353 352 353 358 7 13 14 11 4 354 347 342 335 333 338 349 1 8 9 0 352 349 351 357 12 35 69 89 88 86 83 79 71 64 59 56 48 40 32 29 47 61 64 56 48 40 32 23 17